Location: U-46 Planetarium
(42.0300°N, 88.2740°W)
Time: 15:57:13
(UTC-06:00)

Cosmos 2263 Rocket - Pass Details

Date: 16 December 2017
Orbit: 825 x 847 km, 71.0° (Epoch: 22 January)

Event Time Altitude Azimuth Distance (km) Brightness Sun altitude
Rises 18:55:39 0° 342° (NNW) 3,371 5.5 -27.4°
Reaches altitude 10° 18:58:17 10° 351° (N) 2,434 4.6 -27.9°
Enters shadow 18:59:12 15° 356° (N) 2,127 4.2 -28.1°
